STARLINK-2365 (47905 NORAD) Tracking and Keplerian Element Data

This shows tracking and keplerian element data for the satellite.

Feedback or suggestion? Click here.




ElementValue
Catalog47905
NameSTARLINK-2365
Epoch Orbit188
Epoch Day170.58334491
Epoch Year2021
RAAN95.1308
Inclination53.0488
Eccentricity0.0002245
Argument of Perigee25.8727
Mean Anonmoly20.306
Mean Motion15.73220052
Decay Rate0.00052864
L11 47905U 21021AX 21170.58334491 .00052864 00000-0 37830-3 0 9998
L22 47905 53.0488 95.1308 0002245 25.8727 20.3060 15.73220052 1880

Live tracking and technical data element details for STARLINK-2365 (NORAD 47905). STARLINK-2365 can be tracked NOW for your location showing map with azimuth and elevation plus other details from your city location.

Track the satellite on the map from your city or location and see movement details for azimuth, elevation, latitude, longitude, range, height, and movement on the map or in text.







IsCatalogInMostPopularTable: catalog: 47905, numindb: 41
Update: records affected: 1



GetName: 47905 STARLINK-2365

Hit Count: updated at: Mon, 21 Jun 2021 05:00:49 GMT